contact:dominique.lefevre@mio.osupytheas.fr, maurice.libes@osupytheas.fr, didier.mallarino@osupytheas.fr
Project:EMSO http://www.emso-fr.org/EMSO-France
Depth: 2436.0 m
Title:EMSO Ligure Ouest : Data MII capteur MICROCAT
DateTime_Computer,Latitude,Longitude,Temperature,Conductivity,Pressure,DateTime_Instrument
DateTime_Computer,Latitude,Longitude,degC,S m-1,dbar,DateTime_Instrument
2020-03-15T00:00:10Z,42.805,6.029,13.2972,4.59991,2470.087,2020-3-15T02:00:47Z
2020-03-15T00:03:13Z,42.805,6.029,13.2968,4.59986,2470.063,2020-3-15T02:03:50Z
2020-03-15T00:06:16Z,42.805,6.029,13.2979,4.59994,2470.063,2020-3-15T02:06:53Z
2020-03-15T00:09:19Z,42.805,6.029,13.2974,4.59983,2470.1,2020-3-15T02:09:56Z
2020-03-15T00:12:23Z,42.805,6.029,13.2977,4.59990,2470.087,2020-3-15T02:13:00Z
2020-03-15T00:15:26Z,42.805,6.029,13.2979,4.59996,2470.1,2020-3-15T02:16:03Z
2020-03-15T00:18:29Z,42.805,6.029,13.2971,4.59994,2470.11,2020-3-15T02:19:06Z
2020-03-15T00:21:32Z,42.805,6.029,13.2985,4.59992,2470.11,2020-3-15T02:22:09Z
2020-03-15T00:24:35Z,42.805,6.029,13.2976,4.60006,2470.124,2020-3-15T02:25:13Z
2020-03-15T00:27:39Z,42.805,6.029,13.2974,4.59993,2470.124,2020-3-15T02:28:16Z
2020-03-15T00:30:42Z,42.805,6.029,13.2977,4.59994,2470.087,2020-3-15T02:31:19Z
2020-03-15T00:33:45Z,42.805,6.029,13.2976,4.59995,2470.04,2020-3-15T02:34:22Z
2020-03-15T00:36:48Z,42.805,6.029,13.2972,4.59985,2470.11,2020-3-15T02:37:26Z
2020-03-15T00:39:52Z,42.805,6.029,13.2974,4.59984,2470.124,2020-3-15T02:40:29Z
2020-03-15T00:42:55Z,42.805,6.029,13.2972,4.59991,2470.087,2020-3-15T02:43:32Z
2020-03-15T00:45:58Z,42.805,6.029,13.2976,4.59992,2470.1,2020-3-15T02:46:35Z
2020-03-15T00:49:01Z,42.805,6.029,13.2983,4.59990,2470.124,2020-3-15T02:49:38Z
2020-03-15T00:52:04Z,42.805,6.029,13.2970,4.59996,2470.11,2020-3-15T02:52:42Z
2020-03-15T00:55:08Z,42.805,6.029,13.2974,4.59994,2470.077,2020-3-15T02:55:45Z
2020-03-15T00:58:11Z,42.805,6.029,13.2974,4.59994,2470.087,2020-3-15T02:58:48Z
2020-03-15T01:01:14Z,42.805,6.029,13.2974,4.59979,2470.1,2020-3-15T03:01:51Z
2020-03-15T01:04:18Z,42.805,6.029,13.2972,4.59984,2470.077,2020-3-15T03:04:55Z
2020-03-15T01:07:21Z,42.805,6.029,13.2976,4.59992,2470.087,2020-3-15T03:07:58Z
2020-03-15T01:10:24Z,42.805,6.029,13.2976,4.59992,2470.053,2020-3-15T03:11:01Z
2020-03-15T01:13:27Z,42.805,6.029,13.2972,4.59989,2470.063,2020-3-15T03:14:04Z
2020-03-15T01:16:31Z,42.805,6.029,13.2974,4.59978,2470.087,2020-3-15T03:17:08Z
2020-03-15T01:19:34Z,42.805,6.029,13.2973,4.59998,2470.077,2020-3-15T03:20:11Z
2020-03-15T01:22:37Z,42.805,6.029,13.2981,4.59999,2470.063,2020-3-15T03:23:14Z
2020-03-15T01:25:40Z,42.805,6.029,13.2972,4.59986,2470.077,2020-3-15T03:26:17Z
2020-03-15T01:28:44Z,42.805,6.029,13.2974,4.59992,2470.077,2020-3-15T03:29:21Z
2020-03-15T01:31:47Z,42.805,6.029,13.2972,4.59992,2470.077,2020-3-15T03:32:24Z
2020-03-15T01:34:50Z,42.805,6.029,13.2973,4.59996,2470.077,2020-3-15T03:35:27Z
2020-03-15T01:37:53Z,42.805,6.029,13.2979,4.59991,2470.063,2020-3-15T03:38:30Z
2020-03-15T01:40:56Z,42.805,6.029,13.2974,4.59991,2470.077,2020-3-15T03:41:33Z
2020-03-15T01:44:00Z,42.805,6.029,13.2974,4.59991,2470.1,2020-3-15T03:44:37Z
2020-03-15T01:47:03Z,42.805,6.029,13.2969,4.59990,2470.053,2020-3-15T03:47:40Z
2020-03-15T01:50:06Z,42.805,6.029,13.2976,4.59992,2470.053,2020-3-15T03:50:43Z
2020-03-15T01:53:09Z,42.805,6.029,13.2973,4.59996,2470.017,2020-3-15T03:53:46Z
2020-03-15T01:56:12Z,42.805,6.029,13.2971,4.59987,2470.063,2020-3-15T03:56:50Z
2020-03-15T01:59:16Z,42.805,6.029,13.2968,4.59991,2470.017,2020-3-15T03:59:53Z
2020-03-15T02:02:19Z,42.805,6.029,13.2979,4.59992,2470.03,2020-3-15T04:02:56Z
2020-03-15T02:05:22Z,42.805,6.029,13.2968,4.59992,2470.03,2020-3-15T04:05:59Z
2020-03-15T02:08:26Z,42.805,6.029,13.2971,4.59977,2470.04,2020-3-15T04:09:03Z
2020-03-15T02:11:29Z,42.805,6.029,13.2974,4.59990,2470.03,2020-3-15T04:12:06Z
2020-03-15T02:14:32Z,42.805,6.029,13.2986,4.59991,2470.063,2020-3-15T04:15:09Z
2020-03-15T02:17:35Z,42.805,6.029,13.2971,4.59979,2470.017,2020-3-15T04:18:12Z
2020-03-15T02:20:39Z,42.805,6.029,13.2976,4.59996,2470.077,2020-3-15T04:21:16Z
2020-03-15T02:23:42Z,42.805,6.029,13.2980,4.60009,2470.053,2020-3-15T04:24:19Z
2020-03-15T02:26:45Z,42.805,6.029,13.2972,4.59985,2470.017,2020-3-15T04:27:22Z
2020-03-15T02:29:48Z,42.805,6.029,13.2973,4.59996,2470.053,2020-3-15T04:30:25Z
2020-03-15T02:32:52Z,42.805,6.029,13.2974,4.59994,2470.063,2020-3-15T04:33:29Z
2020-03-15T02:35:55Z,42.805,6.029,13.2972,4.59990,2470.087,2020-3-15T04:36:32Z
2020-03-15T02:38:58Z,42.805,6.029,13.2974,4.59990,2470.017,2020-3-15T04:39:35Z
2020-03-15T02:42:01Z,42.805,6.029,13.2978,4.60006,2470.017,2020-3-15T04:42:38Z
2020-03-15T02:45:05Z,42.805,6.029,13.2979,4.60009,2470.03,2020-3-15T04:45:42Z
2020-03-15T02:48:08Z,42.805,6.029,13.2979,4.60003,2470.017,2020-3-15T04:48:45Z
2020-03-15T02:51:11Z,42.805,6.029,13.2971,4.59996,2470.04,2020-3-15T04:51:48Z
2020-03-15T02:54:14Z,42.805,6.029,13.2975,4.59980,2470.017,2020-3-15T04:54:51Z
2020-03-15T02:57:18Z,42.805,6.029,13.2973,4.59987,2470.017,2020-3-15T04:57:55Z
2020-03-15T03:00:21Z,42.805,6.029,13.2971,4.59989,2470.03,2020-3-15T05:00:58Z
2020-03-15T03:03:24Z,42.805,6.029,13.2974,4.59984,2470.077,2020-3-15T05:04:01Z
2020-03-15T03:06:27Z,42.805,6.029,13.2971,4.59982,2470.04,2020-3-15T05:07:04Z
2020-03-15T03:09:31Z,42.805,6.029,13.2974,4.59987,2469.993,2020-3-15T05:10:08Z
2020-03-15T03:12:34Z,42.805,6.029,13.2970,4.59981,2470.04,2020-3-15T05:13:11Z
2020-03-15T03:15:37Z,42.805,6.029,13.2971,4.59987,2470.053,2020-3-15T05:16:14Z
2020-03-15T03:18:41Z,42.805,6.029,13.2971,4.59991,2470.017,2020-3-15T05:19:18Z
2020-03-15T03:21:44Z,42.805,6.029,13.2972,4.59991,2469.993,2020-3-15T05:22:21Z
2020-03-15T03:24:47Z,42.805,6.029,13.2976,4.59992,2469.993,2020-3-15T05:25:24Z
2020-03-15T03:27:50Z,42.805,6.029,13.2970,4.59986,2469.993,2020-3-15T05:28:27Z
2020-03-15T03:30:54Z,42.805,6.029,13.2978,4.59992,2470.007,2020-3-15T05:31:31Z
2020-03-15T03:33:57Z,42.805,6.029,13.2973,4.59986,2470.017,2020-3-15T05:34:34Z
2020-03-15T03:37:00Z,42.805,6.029,13.2976,4.59987,2470.017,2020-3-15T05:37:37Z
2020-03-15T03:40:03Z,42.805,6.029,13.2968,4.59988,2470.053,2020-3-15T05:40:40Z
2020-03-15T03:43:07Z,42.805,6.029,13.2972,4.59982,2470.04,2020-3-15T05:43:44Z
2020-03-15T03:46:10Z,42.805,6.029,13.2968,4.59986,2470.017,2020-3-15T05:46:47Z
2020-03-15T03:49:13Z,42.805,6.029,13.2969,4.59987,2470.007,2020-3-15T05:49:50Z
2020-03-15T03:52:16Z,42.805,6.029,13.2974,4.59991,2470.03,2020-3-15T05:52:54Z
2020-03-15T03:55:20Z,42.805,6.029,13.2975,4.59983,2469.993,2020-3-15T05:55:57Z
2020-03-15T03:58:23Z,42.805,6.029,13.2975,4.59981,2470.017,2020-3-15T05:59:00Z
2020-03-15T04:01:26Z,42.805,6.029,13.2974,4.59988,2470.03,2020-3-15T06:02:03Z
2020-03-15T04:04:29Z,42.805,6.029,13.2976,4.59996,2470.017,2020-3-15T06:05:06Z
2020-03-15T04:07:33Z,42.805,6.029,13.2974,4.59991,2469.993,2020-3-15T06:08:10Z
2020-03-15T04:10:36Z,42.805,6.029,13.2974,4.59986,2470.03,2020-3-15T06:11:13Z
2020-03-15T04:13:39Z,42.805,6.029,13.2978,4.60001,2470.017,2020-3-15T06:14:16Z
2020-03-15T04:16:43Z,42.805,6.029,13.2981,4.59989,2469.993,2020-3-15T06:17:20Z
2020-03-15T04:19:46Z,42.805,6.029,13.2973,4.59994,2470.007,2020-3-15T06:20:23Z
2020-03-15T04:22:49Z,42.805,6.029,13.2973,4.59988,2470.017,2020-3-15T06:23:26Z
2020-03-15T04:25:52Z,42.805,6.029,13.2976,4.59988,2470.017,2020-3-15T06:26:29Z
2020-03-15T04:28:56Z,42.805,6.029,13.2971,4.59984,2470.03,2020-3-15T06:29:33Z
2020-03-15T04:31:59Z,42.805,6.029,13.2974,4.59994,2470.03,2020-3-15T06:32:36Z
2020-03-15T04:35:02Z,42.805,6.029,13.2974,4.59983,2470.017,2020-3-15T06:35:40Z
2020-03-15T04:38:06Z,42.805,6.029,13.2970,4.59988,2470.03,2020-3-15T06:38:43Z
2020-03-15T04:41:09Z,42.805,6.029,13.2970,4.59986,2469.993,2020-3-15T06:41:46Z
2020-03-15T04:44:12Z,42.805,6.029,13.2984,4.59998,2470.007,2020-3-15T06:44:49Z
2020-03-15T04:47:15Z,42.805,6.029,13.2972,4.59986,2469.993,2020-3-15T06:47:53Z
2020-03-15T04:50:19Z,42.805,6.029,13.2971,4.59981,2470.017,2020-3-15T06:50:56Z
2020-03-15T04:53:22Z,42.805,6.029,13.2974,4.59986,2470.053,2020-3-15T06:53:59Z
2020-03-15T04:56:25Z,42.805,6.029,13.2974,4.59983,2470.017,2020-3-15T06:57:02Z
2020-03-15T04:59:28Z,42.805,6.029,13.2982,4.59991,2469.984,2020-3-15T07:00:06Z
2020-03-15T05:02:32Z,42.805,6.029,13.2977,4.59998,2469.993,2020-3-15T07:03:09Z
2020-03-15T05:05:35Z,42.805,6.029,13.2971,4.59978,2469.97,2020-3-15T07:06:12Z
2020-03-15T05:08:38Z,42.805,6.029,13.2976,4.59986,2469.993,2020-3-15T07:09:15Z
2020-03-15T05:11:41Z,42.805,6.029,13.2971,4.59994,2469.97,2020-3-15T07:12:18Z
2020-03-15T05:14:44Z,42.805,6.029,13.2981,4.59988,2470.007,2020-3-15T07:15:22Z
2020-03-15T05:17:48Z,42.805,6.029,13.2983,4.59997,2470.017,2020-3-15T07:18:25Z
2020-03-15T05:20:51Z,42.805,6.029,13.2977,4.59991,2469.984,2020-3-15T07:21:28Z
2020-03-15T05:23:54Z,42.805,6.029,13.2971,4.60002,2469.993,2020-3-15T07:24:31Z
2020-03-15T05:26:57Z,42.805,6.029,13.2971,4.59981,2469.984,2020-3-15T07:27:35Z
2020-03-15T05:30:01Z,42.805,6.029,13.2972,4.60008,2469.984,2020-3-15T07:30:38Z
2020-03-15T05:33:04Z,42.805,6.029,13.2975,4.59999,2469.993,2020-3-15T07:33:41Z
2020-03-15T05:36:07Z,42.805,6.029,13.2972,4.59986,2469.97,2020-3-15T07:36:44Z
2020-03-15T05:39:10Z,42.805,6.029,13.2978,4.59994,2469.993,2020-3-15T07:39:48Z
2020-03-15T05:42:14Z,42.805,6.029,13.2981,4.59996,2470.007,2020-3-15T07:42:51Z
2020-03-15T05:45:17Z,42.805,6.029,13.2977,4.59994,2469.984,2020-3-15T07:45:54Z
2020-03-15T05:48:20Z,42.805,6.029,13.2972,4.59991,2469.96,2020-3-15T07:48:57Z
2020-03-15T05:51:23Z,42.805,6.029,13.2983,4.60007,2469.984,2020-3-15T07:52:01Z
2020-03-15T05:54:27Z,42.805,6.029,13.2979,4.59999,2469.96,2020-3-15T07:55:04Z
2020-03-15T05:57:30Z,42.805,6.029,13.2972,4.60005,2469.97,2020-3-15T07:58:07Z
2020-03-15T06:00:33Z,42.805,6.029,13.2971,4.59988,2469.993,2020-3-15T08:01:10Z
2020-03-15T06:03:36Z,42.805,6.029,13.2991,4.59995,2470.007,2020-3-15T08:04:13Z
2020-03-15T06:06:40Z,42.805,6.029,13.2978,4.59999,2470.007,2020-3-15T08:07:17Z
2020-03-15T06:09:43Z,42.805,6.029,13.2971,4.59997,2469.984,2020-3-15T08:10:20Z
2020-03-15T06:12:46Z,42.805,6.029,13.2973,4.59995,2469.984,2020-3-15T08:13:23Z
2020-03-15T06:15:49Z,42.805,6.029,13.2976,4.60000,2469.97,2020-3-15T08:16:26Z
2020-03-15T06:18:53Z,42.805,6.029,13.2976,4.60004,2470.007,2020-3-15T08:19:30Z
2020-03-15T06:21:56Z,42.805,6.029,13.2976,4.59995,2469.947,2020-3-15T08:22:33Z
2020-03-15T06:24:59Z,42.805,6.029,13.2973,4.59993,2469.984,2020-3-15T08:25:36Z
2020-03-15T06:28:02Z,42.805,6.029,13.2974,4.59996,2469.984,2020-3-15T08:28:39Z
2020-03-15T06:31:06Z,42.805,6.029,13.2971,4.59991,2470.007,2020-3-15T08:31:43Z
2020-03-15T06:34:09Z,42.805,6.029,13.2976,4.59990,2469.947,2020-3-15T08:34:46Z
2020-03-15T06:37:12Z,42.805,6.029,13.2982,4.59996,2470.007,2020-3-15T08:37:49Z
2020-03-15T06:40:15Z,42.805,6.029,13.2983,4.60019,2469.947,2020-3-15T08:40:52Z
2020-03-15T06:43:19Z,42.805,6.029,13.2974,4.59994,2469.947,2020-3-15T08:43:56Z
2020-03-15T06:46:22Z,42.805,6.029,13.2970,4.59992,2469.96,2020-3-15T08:46:59Z
2020-03-15T06:49:25Z,42.805,6.029,13.2982,4.59984,2470.03,2020-3-15T08:50:02Z
2020-03-15T06:52:28Z,42.805,6.029,13.2984,4.59996,2469.984,2020-3-15T08:53:05Z
2020-03-15T06:55:31Z,42.805,6.029,13.2972,4.59993,2470.007,2020-3-15T08:56:09Z
2020-03-15T06:58:35Z,42.805,6.029,13.2985,4.60013,2469.97,2020-3-15T08:59:12Z
2020-03-15T07:01:38Z,42.805,6.029,13.2969,4.59986,2469.97,2020-3-15T09:02:15Z
2020-03-15T07:04:41Z,42.805,6.029,13.2978,4.59990,2469.97,2020-3-15T09:05:18Z
2020-03-15T07:07:44Z,42.805,6.029,13.2985,4.60003,2469.97,2020-3-15T09:08:22Z
2020-03-15T07:10:48Z,42.805,6.029,13.2976,4.60001,2469.984,2020-3-15T09:11:25Z
2020-03-15T07:13:51Z,42.805,6.029,13.2980,4.59999,2469.97,2020-3-15T09:14:28Z
2020-03-15T07:16:54Z,42.805,6.029,13.2976,4.59999,2469.993,2020-3-15T09:17:31Z
2020-03-15T07:19:57Z,42.805,6.029,13.2974,4.59997,2470.007,2020-3-15T09:20:35Z
2020-03-15T07:23:01Z,42.805,6.029,13.2975,4.59993,2469.984,2020-3-15T09:23:38Z
2020-03-15T07:26:04Z,42.805,6.029,13.2981,4.60008,2469.984,2020-3-15T09:26:41Z
2020-03-15T07:29:07Z,42.805,6.029,13.2974,4.60010,2469.993,2020-3-15T09:29:45Z
2020-03-15T07:32:11Z,42.805,6.029,13.2975,4.60008,2470.017,2020-3-15T09:32:48Z
2020-03-15T07:35:14Z,42.805,6.029,13.2980,4.59985,2469.993,2020-3-15T09:35:51Z
2020-03-15T07:38:17Z,42.805,6.029,13.2982,4.60009,2470.017,2020-3-15T09:38:54Z
2020-03-15T07:41:20Z,42.805,6.029,13.2982,4.59999,2470.007,2020-3-15T09:41:57Z
2020-03-15T07:44:23Z,42.805,6.029,13.2976,4.59996,2470.017,2020-3-15T09:45:01Z
2020-03-15T07:47:27Z,42.805,6.029,13.2978,4.60003,2469.993,2020-3-15T09:48:04Z
2020-03-15T07:50:30Z,42.805,6.029,13.2980,4.60004,2470.017,2020-3-15T09:51:07Z
2020-03-15T07:53:33Z,42.805,6.029,13.2973,4.59989,2470.017,2020-3-15T09:54:10Z
2020-03-15T07:56:36Z,42.805,6.029,13.2975,4.60004,2470.017,2020-3-15T09:57:14Z
2020-03-15T07:59:40Z,42.805,6.029,13.2974,4.60002,2470.03,2020-3-15T10:00:17Z
2020-03-15T08:02:43Z,42.805,6.029,13.2976,4.59995,2469.993,2020-3-15T10:03:20Z
2020-03-15T08:05:46Z,42.805,6.029,13.2975,4.59991,2469.993,2020-3-15T10:06:23Z
2020-03-15T08:08:49Z,42.805,6.029,13.2974,4.60003,2470.03,2020-3-15T10:09:27Z
2020-03-15T08:11:53Z,42.805,6.029,13.2978,4.59994,2470.017,2020-3-15T10:12:30Z
2020-03-15T08:14:56Z,42.805,6.029,13.2974,4.59991,2470.053,2020-3-15T10:15:33Z
2020-03-15T08:17:59Z,42.805,6.029,13.2968,4.59980,2470.007,2020-3-15T10:18:36Z
2020-03-15T08:21:02Z,42.805,6.029,13.2971,4.59999,2470.007,2020-3-15T10:21:40Z
2020-03-15T08:24:06Z,42.805,6.029,13.2980,4.60005,2470.03,2020-3-15T10:24:43Z
2020-03-15T08:27:09Z,42.805,6.029,13.2978,4.59996,2470.03,2020-3-15T10:27:46Z
2020-03-15T08:30:12Z,42.805,6.029,13.2976,4.60009,2470.063,2020-3-15T10:30:49Z
2020-03-15T08:33:15Z,42.805,6.029,13.2975,4.60002,2470.04,2020-3-15T10:33:52Z
2020-03-15T08:36:19Z,42.805,6.029,13.2972,4.59995,2470.077,2020-3-15T10:36:56Z
2020-03-15T08:39:22Z,42.805,6.029,13.2979,4.59999,2470.063,2020-3-15T10:39:59Z
2020-03-15T08:42:25Z,42.805,6.029,13.2982,4.60009,2470.017,2020-3-15T10:43:02Z
2020-03-15T08:45:28Z,42.805,6.029,13.2979,4.60011,2470.053,2020-3-15T10:46:05Z
2020-03-15T08:48:32Z,42.805,6.029,13.2979,4.59996,2470.04,2020-3-15T10:49:09Z
2020-03-15T08:51:35Z,42.805,6.029,13.2968,4.59994,2470.053,2020-3-15T10:52:12Z
2020-03-15T08:54:38Z,42.805,6.029,13.2980,4.60003,2470.017,2020-3-15T10:55:15Z
2020-03-15T08:57:41Z,42.805,6.029,13.2979,4.59999,2470.053,2020-3-15T10:58:18Z
2020-03-15T09:00:45Z,42.805,6.029,13.2980,4.60007,2470.053,2020-3-15T11:01:22Z
2020-03-15T09:03:48Z,42.805,6.029,13.2974,4.59992,2470.03,2020-3-15T11:04:25Z
2020-03-15T09:06:51Z,42.805,6.029,13.2978,4.60001,2470.03,2020-3-15T11:07:28Z
2020-03-15T09:09:54Z,42.805,6.029,13.2986,4.59999,2470.077,2020-3-15T11:10:31Z
2020-03-15T09:12:58Z,42.805,6.029,13.2978,4.59998,2470.077,2020-3-15T11:13:35Z
2020-03-15T09:16:01Z,42.805,6.029,13.2971,4.59999,2470.04,2020-3-15T11:16:38Z
2020-03-15T09:19:04Z,42.805,6.029,13.2980,4.59992,2470.053,2020-3-15T11:19:41Z
2020-03-15T09:22:07Z,42.805,6.029,13.2982,4.60009,2470.1,2020-3-15T11:22:44Z
2020-03-15T09:25:11Z,42.805,6.029,13.2977,4.59977,2470.063,2020-3-15T11:25:48Z
2020-03-15T09:28:14Z,42.805,6.029,13.2975,4.59997,2470.04,2020-3-15T11:28:51Z
2020-03-15T09:31:17Z,42.805,6.029,13.2979,4.59994,2470.063,2020-3-15T11:31:54Z
2020-03-15T09:34:20Z,42.805,6.029,13.2974,4.59991,2470.077,2020-3-15T11:34:58Z
2020-03-15T09:37:24Z,42.805,6.029,13.2978,4.59992,2470.124,2020-3-15T11:38:01Z
2020-03-15T09:40:27Z,42.805,6.029,13.2974,4.59982,2470.11,2020-3-15T11:41:04Z
2020-03-15T09:43:30Z,42.805,6.029,13.2971,4.60001,2470.077,2020-3-15T11:44:07Z
2020-03-15T09:46:33Z,42.805,6.029,13.2976,4.60003,2470.087,2020-3-15T11:47:11Z
2020-03-15T09:49:37Z,42.805,6.029,13.2988,4.60016,2470.063,2020-3-15T11:50:14Z
2020-03-15T09:52:40Z,42.805,6.029,13.2983,4.59994,2470.087,2020-3-15T11:53:17Z
2020-03-15T09:55:43Z,42.805,6.029,13.2983,4.60005,2470.063,2020-3-15T11:56:21Z
2020-03-15T09:58:47Z,42.805,6.029,13.2977,4.59991,2470.11,2020-3-15T11:59:24Z
2020-03-15T10:01:50Z,42.805,6.029,13.2976,4.59990,2470.077,2020-3-15T12:02:27Z
2020-03-15T10:04:53Z,42.805,6.029,13.2972,4.60000,2470.087,2020-3-15T12:05:30Z
2020-03-15T10:07:56Z,42.805,6.029,13.2975,4.59990,2470.124,2020-3-15T12:08:33Z
2020-03-15T10:10:59Z,42.805,6.029,13.2976,4.59994,2470.1,2020-3-15T12:11:37Z
2020-03-15T10:14:03Z,42.805,6.029,13.2973,4.59994,2470.11,2020-3-15T12:14:40Z
2020-03-15T10:17:06Z,42.805,6.029,13.2977,4.59998,2470.077,2020-3-15T12:17:43Z
2020-03-15T10:20:09Z,42.805,6.029,13.2977,4.59990,2470.087,2020-3-15T12:20:46Z
2020-03-15T10:23:12Z,42.805,6.029,13.2980,4.59996,2470.087,2020-3-15T12:23:50Z
2020-03-15T10:26:16Z,42.805,6.029,13.2975,4.59987,2470.1,2020-3-15T12:26:53Z
2020-03-15T10:29:19Z,42.805,6.029,13.2974,4.59996,2470.087,2020-3-15T12:29:56Z
2020-03-15T10:32:22Z,42.805,6.029,13.2980,4.60009,2470.11,2020-3-15T12:32:59Z
2020-03-15T10:35:25Z,42.805,6.029,13.2979,4.60014,2470.124,2020-3-15T12:36:03Z
2020-03-15T10:38:29Z,42.805,6.029,13.2984,4.59999,2470.124,2020-3-15T12:39:06Z
2020-03-15T10:41:32Z,42.805,6.029,13.2974,4.59991,2470.124,2020-3-15T12:42:09Z
2020-03-15T10:44:35Z,42.805,6.029,13.2979,4.59986,2470.087,2020-3-15T12:45:12Z
2020-03-15T10:47:39Z,42.805,6.029,13.2982,4.59992,2470.133,2020-3-15T12:48:16Z
2020-03-15T10:50:42Z,42.805,6.029,13.2976,4.60005,2470.1,2020-3-15T12:51:19Z
2020-03-15T10:53:45Z,42.805,6.029,13.2981,4.60014,2470.087,2020-3-15T12:54:22Z
2020-03-15T10:56:48Z,42.805,6.029,13.2978,4.60003,2470.133,2020-3-15T12:57:25Z
2020-03-15T10:59:52Z,42.805,6.029,13.2992,4.60003,2470.11,2020-3-15T13:00:29Z
2020-03-15T11:02:55Z,42.805,6.029,13.2979,4.60006,2470.1,2020-3-15T13:03:32Z
2020-03-15T11:05:58Z,42.805,6.029,13.2974,4.59990,2470.124,2020-3-15T13:06:35Z
2020-03-15T11:09:01Z,42.805,6.029,13.2975,4.60006,2470.087,2020-3-15T13:09:39Z
2020-03-15T11:12:05Z,42.805,6.029,13.2981,4.60004,2470.1,2020-3-15T13:12:42Z
2020-03-15T11:15:08Z,42.805,6.029,13.2979,4.59985,2470.124,2020-3-15T13:15:45Z
2020-03-15T11:18:11Z,42.805,6.029,13.2979,4.60003,2470.124,2020-3-15T13:18:48Z
2020-03-15T11:21:15Z,42.805,6.029,13.2978,4.60008,2470.147,2020-3-15T13:21:52Z
2020-03-15T11:24:18Z,42.805,6.029,13.2974,4.59991,2470.124,2020-3-15T13:24:55Z
2020-03-15T11:27:21Z,42.805,6.029,13.2979,4.59994,2470.087,2020-3-15T13:27:58Z
2020-03-15T11:30:24Z,42.805,6.029,13.2972,4.60013,2470.087,2020-3-15T13:31:01Z
2020-03-15T11:33:28Z,42.805,6.029,13.2972,4.59996,2470.11,2020-3-15T13:34:05Z
2020-03-15T11:36:31Z,42.805,6.029,13.2974,4.60006,2470.087,2020-3-15T13:37:08Z
2020-03-15T11:39:34Z,42.805,6.029,13.2982,4.59988,2470.1,2020-3-15T13:40:11Z
2020-03-15T11:42:37Z,42.805,6.029,13.2983,4.59997,2470.1,2020-3-15T13:43:14Z
2020-03-15T11:45:41Z,42.805,6.029,13.2981,4.60001,2470.11,2020-3-15T13:46:18Z
2020-03-15T11:48:44Z,42.805,6.029,13.2986,4.60005,2470.11,2020-3-15T13:49:21Z
2020-03-15T11:51:47Z,42.805,6.029,13.2976,4.59996,2470.11,2020-3-15T13:52:24Z
2020-03-15T11:54:50Z,42.805,6.029,13.2974,4.59989,2470.1,2020-3-15T13:55:27Z
2020-03-15T11:57:54Z,42.805,6.029,13.2976,4.59996,2470.087,2020-3-15T13:58:31Z
2020-03-15T12:00:57Z,42.805,6.029,13.2972,4.60002,2470.1,2020-3-15T14:01:34Z
2020-03-15T12:04:00Z,42.805,6.029,13.2979,4.60010,2470.11,2020-3-15T14:04:37Z
2020-03-15T12:07:03Z,42.805,6.029,13.2977,4.60000,2470.077,2020-3-15T14:07:40Z
2020-03-15T12:10:06Z,42.805,6.029,13.2983,4.59999,2470.124,2020-3-15T14:10:44Z
2020-03-15T12:13:10Z,42.805,6.029,13.2976,4.59993,2470.124,2020-3-15T14:13:47Z
2020-03-15T12:16:13Z,42.805,6.029,13.2968,4.59986,2470.1,2020-3-15T14:16:50Z
2020-03-15T12:19:16Z,42.805,6.029,13.2977,4.59986,2470.063,2020-3-15T14:19:53Z
2020-03-15T12:22:20Z,42.805,6.029,13.2974,4.59983,2470.077,2020-3-15T14:22:57Z
2020-03-15T12:25:23Z,42.805,6.029,13.2974,4.60006,2470.077,2020-3-15T14:26:00Z
2020-03-15T12:28:26Z,42.805,6.029,13.2977,4.60003,2470.1,2020-3-15T14:29:03Z
2020-03-15T12:31:29Z,42.805,6.029,13.2989,4.60009,2470.063,2020-3-15T14:32:07Z
2020-03-15T12:34:33Z,42.805,6.029,13.2973,4.60009,2470.077,2020-3-15T14:35:10Z
2020-03-15T12:37:36Z,42.805,6.029,13.2984,4.60009,2470.063,2020-3-15T14:38:13Z
2020-03-15T12:40:39Z,42.805,6.029,13.2974,4.59990,2470.077,2020-3-15T14:41:16Z
2020-03-15T12:43:42Z,42.805,6.029,13.2975,4.60005,2470.087,2020-3-15T14:44:20Z
2020-03-15T12:46:46Z,42.805,6.029,13.2974,4.59985,2470.087,2020-3-15T14:47:23Z
2020-03-15T12:49:49Z,42.805,6.029,13.2980,4.60003,2470.077,2020-3-15T14:50:26Z
2020-03-15T12:52:52Z,42.805,6.029,13.2983,4.59991,2470.077,2020-3-15T14:53:29Z
2020-03-15T12:55:56Z,42.805,6.029,13.2974,4.59986,2470.04,2020-3-15T14:56:33Z
2020-03-15T12:58:59Z,42.805,6.029,13.2974,4.59981,2470.087,2020-3-15T14:59:36Z
2020-03-15T13:02:02Z,42.805,6.029,13.2976,4.59992,2470.063,2020-3-15T15:02:39Z
2020-03-15T13:05:05Z,42.805,6.029,13.2972,4.59991,2470.063,2020-3-15T15:05:42Z
2020-03-15T13:08:09Z,42.805,6.029,13.2976,4.59998,2470.077,2020-3-15T15:08:46Z
2020-03-15T13:11:12Z,42.805,6.029,13.2979,4.60002,2470.077,2020-3-15T15:11:49Z
2020-03-15T13:14:15Z,42.805,6.029,13.2979,4.60004,2470.087,2020-3-15T15:14:52Z
2020-03-15T13:17:19Z,42.805,6.029,13.2974,4.59996,2470.063,2020-3-15T15:17:56Z
2020-03-15T13:20:22Z,42.805,6.029,13.2976,4.60004,2470.1,2020-3-15T15:20:59Z
2020-03-15T13:23:25Z,42.805,6.029,13.2973,4.60003,2470.063,2020-3-15T15:24:02Z
2020-03-15T13:26:28Z,42.805,6.029,13.2983,4.59990,2470.04,2020-3-15T15:27:05Z
2020-03-15T13:29:31Z,42.805,6.029,13.2975,4.60003,2470.053,2020-3-15T15:30:09Z
2020-03-15T13:32:35Z,42.805,6.029,13.2974,4.59995,2470.063,2020-3-15T15:33:12Z
2020-03-15T13:35:38Z,42.805,6.029,13.2988,4.59996,2470.063,2020-3-15T15:36:15Z
2020-03-15T13:38:41Z,42.805,6.029,13.2975,4.60008,2470.04,2020-3-15T15:39:18Z
2020-03-15T13:41:44Z,42.805,6.029,13.2976,4.59999,2470.077,2020-3-15T15:42:22Z
2020-03-15T13:44:48Z,42.805,6.029,13.2989,4.60011,2470.04,2020-3-15T15:45:25Z
2020-03-15T13:47:51Z,42.805,6.029,13.2972,4.59999,2470.03,2020-3-15T15:48:28Z
2020-03-15T13:50:54Z,42.805,6.029,13.2979,4.59988,2470.04,2020-3-15T15:51:31Z
2020-03-15T13:53:57Z,42.805,6.029,13.2975,4.59993,2470.017,2020-3-15T15:54:34Z
2020-03-15T13:57:00Z,42.805,6.029,13.3004,4.60001,2470.04,2020-3-15T15:57:38Z
2020-03-15T14:00:04Z,42.805,6.029,13.2984,4.60008,2470.017,2020-3-15T16:00:41Z
2020-03-15T14:03:07Z,42.805,6.029,13.2991,4.60000,2470.03,2020-3-15T16:03:44Z
2020-03-15T14:06:10Z,42.805,6.029,13.2979,4.60002,2470.017,2020-3-15T16:06:47Z
2020-03-15T14:09:13Z,42.805,6.029,13.2983,4.59993,2470.04,2020-3-15T16:09:51Z
2020-03-15T14:12:17Z,42.805,6.029,13.2981,4.60016,2470.063,2020-3-15T16:12:54Z
2020-03-15T14:15:20Z,42.805,6.029,13.2981,4.60003,2470.03,2020-3-15T16:15:57Z
2020-03-15T14:18:23Z,42.805,6.029,13.2996,4.60005,2470.017,2020-3-15T16:19:00Z
2020-03-15T14:21:26Z,42.805,6.029,13.2980,4.60001,2470.03,2020-3-15T16:22:04Z
2020-03-15T14:24:30Z,42.805,6.029,13.2977,4.59997,2470.017,2020-3-15T16:25:07Z
2020-03-15T14:27:33Z,42.805,6.029,13.2988,4.60014,2470.03,2020-3-15T16:28:10Z
2020-03-15T14:30:36Z,42.805,6.029,13.2982,4.60009,2470.04,2020-3-15T16:31:13Z
2020-03-15T14:33:40Z,42.805,6.029,13.2982,4.59990,2470.04,2020-3-15T16:34:17Z
2020-03-15T14:36:43Z,42.805,6.029,13.2977,4.59995,2469.993,2020-3-15T16:37:20Z
2020-03-15T14:39:46Z,42.805,6.029,13.2977,4.59991,2470.017,2020-3-15T16:40:23Z
2020-03-15T14:42:50Z,42.805,6.029,13.2978,4.60009,2470.03,2020-3-15T16:43:27Z
2020-03-15T14:45:53Z,42.805,6.029,13.2981,4.60003,2470.017,2020-3-15T16:46:30Z
2020-03-15T14:48:56Z,42.805,6.029,13.2982,4.59991,2470.03,2020-3-15T16:49:33Z
2020-03-15T14:51:59Z,42.805,6.029,13.2993,4.60003,2470.03,2020-3-15T16:52:36Z
2020-03-15T14:55:03Z,42.805,6.029,13.2976,4.60005,2470.007,2020-3-15T16:55:40Z
2020-03-15T14:58:06Z,42.805,6.029,13.2980,4.59998,2470.03,2020-3-15T16:58:43Z
2020-03-15T15:01:09Z,42.805,6.029,13.2974,4.59985,2470.017,2020-3-15T17:01:46Z
2020-03-15T15:04:12Z,42.805,6.029,13.2973,4.59999,2470.053,2020-3-15T17:04:49Z
2020-03-15T15:07:15Z,42.805,6.029,13.2976,4.60011,2470.017,2020-3-15T17:07:53Z
2020-03-15T15:10:19Z,42.805,6.029,13.2983,4.59996,2470.03,2020-3-15T17:10:56Z
2020-03-15T15:13:22Z,42.805,6.029,13.2974,4.60002,2470.007,2020-3-15T17:13:59Z